Zurück zum Katalog

STARLINK-36309

AktivKommunikationVLEO
NORAD 68325·PAYLOAD·🇺🇸 United States

Gestartet Mar 22, 2026 von Cape Canaveral Space Force Station

Loading…

Nächste Überflüge (nächste 24 Stunden)

TLE

AktuellSource: CelesTrak SupGP

Epoche: Sep 14, 2026, 16:01 UTC

1 68325C 26059E   26257.66784722  .00066177  00000+0  19546-2 0  2570
2 68325  53.1571 183.3086 0001261  96.6488 127.8915 15.34366780    15

Verfolge STARLINK-36309 in Echtzeit mit AllMySat

Download on the App Store